Terminal Aerodrome Forecast
Issued by NWS Austin/San Antonio, TX

Home | Current Version | Previous Version | Text Only | Print | Product List | Glossary On
Versions: 1 2 3 4 5 6 7 8 9 10 11 12 13 14 15 16 17 18 19 20 21 22 23 24 25 26 27 28 29 30 31 32 33 34 35 36 37 38 39 40 41 42 43 44
300
FTUS44 KEWX 220539
TAFAUS
TAF
KAUS 220539Z 2206/2312 28008KT 6SM BR VCSH SCT009 BKN015
     FM220700 28005KT P6SM SCT015 SCT250
     FM221400 33014KT P6SM FEW250
     FM230000 31004KT P6SM FEW250=

USA.gov is the U.S. government's official web portal to all federal, state and local government web resources and services.